Location: Munkebjergskolens Observatorium
(55.3864°N, 10.3987°E)
Time: 22:51:39
(UTC+01:00)

DELTA 1 DEB - Pass Details

Date: 06 December 2023
Orbit: 783 x 826 km, 98.9° (Epoch: 04 March)

Event Time Altitude Azimuth Distance (km) Brightness Sun altitude
Rises 06:49:01 0° 18° (NNE) 3,370 ? -12.9°
Reaches altitude 10° 06:51:26 10° 24° (NNE) 2,437 ? -12.6°
Maximum altitude 06:56:43 52° 101° (E) 1,020 ? -11.9°
Drops below altitude 10° 07:01:59 10° 177° (S) 2,428 ? -11.2°
Sets 07:04:23 0° 183° (S) 3,357 ? -10.9°
